Regional Weather Roundup
Issued by NWS Goodland, KS

Home | Current Version | Previous Version | Text Only | Print | Product List | Glossary Off
Versions: 1 2 3 4 5 6 7 8 9 10 11 12 13 14 15 16 17 18 19 20 21 22 23 24 25 26 27 28 29 30 31 32 33 34 35 36 37 38 39 40 41 42 43 44 45 46 47 48 49 50

000
ASUS43 KGLD 231608
RWRGLD

GOODLAND FORECAST AREA HOURLY WEATHER ROUNDUP
NATIONAL WEATHER SERVICE GOODLAND KS
1000 AM MDT TUE AUG 23 2016

...OFFICIAL OBSERVATIONS...

CITY           SKY/WX    TMP DP  RH WIND       PRES   REMARKS
GOODLAND KS    SUNNY     78  53  41 W7        29.90R
HILL CITY KS   SUNNY     82  64  54 SW20G25   29.84F
IMPERIAL NEB   SUNNY     75  62  64 NW7       29.88R
MCCOOK NEB     SUNNY     77  64  64 SW5       29.83S
AKRON CO       SUNNY     79  42  26 NW14      30.00R
BURLINGTON CO  SUNNY     85  39  19 N15       29.95R
LIMON CO       SUNNY     83  32  16 N13       30.06R
$$

...UNOFFICIAL OBSERVATIONS...

CITY           SKY/WX    TMP DP  RH WIND       PRES   REMARKS
LENORA KS        N/A     81  32  17 MISG        N/A
TRENTON NEB      N/A     78  32  18 MISG        N/A
$$




USA.gov is the U.S. government's official web portal to all federal, state and local government web resources and services.